Lava Hot Springs, Idaho, United States (83246)
Lat: 42.62N, Lon: 112.01W
Wx Zone: IDZ023
Local Info
Past Weather Observations for Today

NOTE: This archive is for the closest National Weather Service station to Lava Hot Springs. Information may differ from the station used for current weather conditions.

Click here for Long-term Archive

Time Weather Temperature Dewpoint Humidity Pressure Winds Precip Visibility
14:53
Mostly Cloudy
37°F / 3°C 30°F / -1°C 75% 30.12 in
(1020 mb)
SE 3.5 mph
(SE 6 kph)
- 10SM
13:53
Mostly Cloudy
36°F / 2°C 28°F / -2°C 75% 30.12 in
(1020 mb)
Calm - 10SM
12:53
Partly Cloudy
36°F / 2°C 28°F / -2°C 75% 30.12 in
(1020 mb)
NW 5.8 mph
(NW 9 kph)
- 10SM
11:53
Partly Cloudy
34°F / 1°C 30°F / -1°C 87% 30.15 in
(1021 mb)
NW 3.5 mph
(NW 6 kph)
- 10SM
10:53
Partly Cloudy
30°F / -1°C 28°F / -2°C 93% 30.15 in
(1021 mb)
Calm - 7SM
09:53
Mostly Cloudy
27°F / -3°C 27°F / -3°C 100% 30.15 in
(1021 mb)
Calm - 8SM
08:53
Mostly Cloudy
Fog And Mist
25°F / -4°C 25°F / -4°C 100% 30.12 in
(1020 mb)
Calm - 5SM
08:10
Overcast
Fog And Mist
21°F / -6°C 21°F / -6°C 100% 30.12 in
(1020 mb)
W 4.6 mph
(W 7 kph)
- 3SM
07:53
Mostly Cloudy
Fog
21°F / -6°C 21°F / -6°C 100% 30.12 in
(1020 mb)
SW 4.6 mph
(SW 7 kph)
- 2SM
06:53
Partly Cloudy
Fog
21°F / -6°C 21°F / -6°C 100% 30.12 in
(1020 mb)
Calm - 1/2SM
05:58
Clear
Fog And Mist
21°F / -6°C 21°F / -6°C 100% 30.09 in
(1019 mb)
SE 4.6 mph
(SE 7 kph)
- 1 3/4SM
05:53
Clear
Fog And Mist
21°F / -6°C 19°F / -7°C 93% 30.09 in
(1019 mb)
ESE 5.8 mph
(ESE 9 kph)
- 3SM
04:53
Clear
Fog And Mist
19°F / -7°C 18°F / -8°C 93% 30.09 in
(1019 mb)
Calm - 4SM
04:26
Clear
Fog And Mist
21°F / -6°C 21°F / -6°C 100% 30.09 in
(1019 mb)
N 4.6 mph
(N 7 kph)
- 5SM
04:18
Clear
Fog And Mist
19°F / -7°C 19°F / -7°C 100% 30.09 in
(1019 mb)
NNW 3.5 mph
(NNW 6 kph)
- 2SM
04:11
Clear
Fog And Mist
19°F / -7°C 19°F / -7°C 100% 30.09 in
(1019 mb)
N 4.6 mph
(N 7 kph)
- 3/4SM
03:53
Clear
Fog And Mist
21°F / -6°C 19°F / -7°C 93% 30.09 in
(1019 mb)
N 4.6 mph
(N 7 kph)
- 6SM
03:09
Clear
Fog And Mist
25°F / -4°C 21°F / -6°C 86% 30.06 in
(1018 mb)
Calm - 5SM
03:02
Clear
Fog And Mist
21°F / -6°C 21°F / -6°C 100% 30.06 in
(1018 mb)
Calm - 2 1/2SM
02:53
Clear
Fog And Mist
21°F / -6°C 21°F / -6°C 100% 30.06 in
(1018 mb)
Calm - 3SM
01:53
Clear
Fog And Mist
21°F / -6°C 21°F / -6°C 100% 30.06 in
(1018 mb)
E 3.5 mph
(E 6 kph)
- 6SM
00:53
Clear
Fog And Mist
25°F / -4°C 25°F / -4°C 100% 30.06 in
(1018 mb)
NE 3.5 mph
(NE 6 kph)
- 5SM
Time Weather Temperature Dewpoint Humidity Pressure Winds Precip Visibility


Weather for websites

WeatherForYou.com, LLC is not responsible for any damages or problems caused by this service. Current weather conditions are obtained from the closest station including government and personal stations which may have varying degrees of accuracy. Weather forecasts are derived from the NOAA NDFD. Like all things, this site belongs to Jesus Christ... He just trusts me to maintain it. If you have any questions or comments email webmaster@weatherforyou.com

Copyright © 2014, WeatherForYou.com LLC. All rights reserved.